Regional Weather Roundup
Issued by NWS State College, PA

Home | Current Version | Previous Version | Text Only | Print | Product List | Glossary Off
Versions: 1 2 3 4 5 6 7 8 9 10 11 12 13 14 15 16 17 18 19 20 21 22 23 24 25 26 27 28 29 30 31 32 33 34 35 36 37 38 39 40 41 42 43 44 45 46 47 48 49 50

000
ASUS41 KCTP 061103
RWRCTP

REGIONAL WEATHER ROUNDUP
NATIONAL WEATHER SERVICE STATE COLLEGE PA
600 AM EST FRI MAR 06 2015

Note: "fair" indicates few or no clouds below 12,000 feet with no
significant weather and/or obstructions to visibility.

* = STATION THAT DOES NOT REPORT PRECIPITATION /E.G. RAIN...SNOW...ETC/
    THUNDER OR FOG.

PAZ002>004-007>009-013>016-020>023-029>032-061200-
WESTERN PENNSYLVANIA

CITY           SKY/WX    TMP DP  RH WIND       PRES   REMARKS
ERIE           MOCLDY     1  -7  68 S8        30.52R WCI -13
MEADVILLE      PTCLDY    -1  -6  79 S6        30.45R WCI -13
FRANKLIN*      PTCLDY    -2  -9  71 SW7       30.46R WCI -16
NEW CASTLE     FAIR      -7 -10  86 CALM      30.52R
BEAVER COUNTY  NOT AVBL
BUTLER*        MOCLDY    -6  -8  92 CALM      30.50R
PITTSBURGH INT MOCLDY    -2  -6  83 CALM      30.50R
PITTSBURGH     MOCLDY     1  -4  79 S6        30.49R WCI -10
INDIANA*       CLEAR     -8 -11  84 CALM      30.52R
LATROBE        MOCLDY    -2  -6  84 CALM      30.54R
WASHINGTON CO* MOCLDY    -9 -15  77 CALM      30.52R
$$

PAZ004>006-010>012-017>019-024>028-033>037-041-042-045-046-049>053-061200-
CENTRAL PENNSYLVANIA

CITY           SKY/WX    TMP DP  RH WIND       PRES   REMARKS
BRADFORD       PTCLDY    -8 -14  74 CALM      30.35S
DUBOIS         PTCLDY    -5  -9  83 SW3       30.42R
CLEARFIELD     FOG       -3  -6  87 CALM      30.46R VSB 1
JOHNSTOWN      PTCLDY     1  -5  75 W8        30.36R WCI -13
ALTOONA        MOCLDY     4  -4  69 CALM      30.46R
STATE COLLEGE  CLEAR      1  -4  78 W7        30.50R WCI -11
WILLIAMSPORT   PTCLDY     4  -5  66 W3        30.54R
SELINSGROVE    PTCLDY    -1  -6  79 CALM      30.55R
FT INDIANTOWN  PTCLDY     6  -3  67 W6        30.54R WCI  -4
CAPITAL CITY   PTCLDY     4  -1  80 CALM      30.56R
HARRISBURG     PTCLDY     8  -1  66 N3        30.55R
YORK           PTCLDY    -7 -12  79 CALM      30.54R
$$

PAZ038>040-043-044-047-048-054-055-060>062-067>071-061200-
EASTERN PENNSYLVANIA

CITY           SKY/WX    TMP DP  RH WIND       PRES   REMARKS
SCRANTON       PTCLDY     5  -5  63 N5        30.46R WCI  -4
MOUNT POCONO   PTCLDY     1  -5  75 N6        30.32R WCI -10
ALLENTOWN      CLEAR      3  -6  66 CALM      30.51R
QUAKERTOWN*    FAIR       7   0  72 NW5       30.50R WCI  -2
READING        MOCLDY     7  -2  66 W7        30.53R WCI  -5
LANCASTER      PTCLDY     0  -6  76 W6        30.54R WCI -12
COATESVILLE    PTSUNNY    9   1  72 NW6       30.50R WCI  -1
POTTSTOWN      PTCLDY     4   1  88 NW7       30.53R WCI  -8
BLUE BELL      PTCLDY    10   3  72 CALM      30.51R
DOYLESTOWN     PTCLDY     6   0  76 N5        30.49R WCI  -3
WILLOW GROVE   NOT AVBL
NORTH PHILA    PTCLDY     9   0  67 N9        30.54R WCI  -4
PHILADELPHIA   PTCLDY    12   2  64 N8        30.54R WCI   0
$$



USA.gov is the U.S. government's official web portal to all federal, state and local government web resources and services.